Flag for Germany Weather past 2 weeks in Löhne, North Rhine-Westphalia, Germany

Now
73 °F

Broken clouds.


Feels Like: 73 °F
Forecast: 61 / 74 °F
Wind: 3 mph from Northeast

Location: Bueckeburg

Current Time: Jul 5, 2015 at 3:28:26 PM

Latest Report: Jul 5, 2015 at 2:20 PM


Visibility: N/A

Pressure: 29.98 "Hg

Humidity: 83%

Dew point: 68 °F

Location of LöhneLocation

Historic Weather in Löhne — Graph

°F

Löhne temperature yesterday

Maximum temperature yesterday: 97 °F (at 3:20 PM)
Minimum temperature yesterday: 68 °F (at 3:20 AM)
Average temperature yesterday: 83 °F

Past Weeks' High & Low Weather Summary

 TemperatureHumidityPressure
High97 °F (Jul 4, 3:20 PM)100% (Jun 22, 12:20 AM)30.27 "Hg (Jun 22, 12:20 AM)
Low48 °F (Jun 22, 11:20 PM)34% (Jul 2, 5:20 PM)29.65 "Hg (Jun 22, 9:20 PM)
Average66 °F69%30.06 "Hg
* Reported Jun 20 2:20 PM — Jul 5 2:20 PM, Löhne, Weather by CustomWeather, © 2015

Note: Actual official high and low records may vary slightly from our data, if they occured in-between our weather recording intervals... More about our weather records

Advertising

Löhne weather history for previous 24 hours

 ConditionsComfort  
Time TempWeatherWind HumidityBarometerVisibility
2:20 PM
Sun, Jul 5
73 °FBroken clouds.3 mph83%29.98 "HgN/A
1:20 PM72 °FSprinkles. Partly sunny.1 mph94%30.07 "Hg5 mi
1:01 PM73 °FThunderstorms. Fog.3 mph89%30.09 "Hg3 mi
12:20 PM75 °FBroken clouds.8 mph78%30.09 "Hg5 mi
11:20 AM75 °FBroken clouds.5 mph78%30.04 "Hg5 mi
10:20 AM75 °FBroken clouds.8 mph74%30.07 "Hg4 mi
9:20 AM75 °FBroken clouds.2 mph74%30.07 "Hg5 mi
8:20 AM73 °FPartly sunny.1 mph78%30.07 "Hg6 mi
7:20 AM73 °FScattered clouds.2 mph78%30.07 "HgN/A
6:20 AM72 °FPartly sunny.3 mph83%30.09 "HgN/A
5:20 AM73 °FPassing clouds.3 mph83%30.07 "HgN/A
4:20 AM73 °FPassing clouds.2 mph83%30.07 "HgN/A
3:20 AM73 °FPassing clouds.1 mph83%30.09 "HgN/A
2:20 AM75 °FPassing clouds.3 mph78%30.09 "HgN/A
1:20 AM75 °FPassing clouds.1 mph83%30.09 "HgN/A
12:20 AM79 °FPassing clouds.5 mph74%30.09 "HgN/A
11:20 PM
Sat, Jul 4
81 °FPassing clouds.6 mph70%30.07 "HgN/A
10:20 PM82 °FPassing clouds.5 mph62%30.07 "HgN/A
9:20 PM86 °FPassing clouds.6 mph59%30.07 "HgN/A
8:20 PM91 °FPassing clouds.8 mph49%30.04 "HgN/A
7:20 PM90 °FPassing clouds.6 mph52%30.04 "HgN/A
6:20 PM91 °FPassing clouds.9 mph44%30.01 "HgN/A
5:20 PM91 °FThundershowers. Scattered clouds.7 mph49%30.04 "HgN/A
4:57 PM90 °FThundershowers. Scattered clouds.7 mph49%30.04 "HgN/A
4:20 PM97 °FPassing clouds.5 mph37%30.04 "HgN/A
3:20 PM97 °FPassing clouds.5 mph37%30.04 "HgN/A
Weather by CustomWeather, © 2015

See weather overviewHow to use our weather pages